User: anonymous   Login
Location: Bonny Doon Airfield
(37.0704°N, 122.1252°W)
Time: 02:43:41
(UTC-07:00)
Language:

BREEZE M DEB (TANK) - Orbit

View from above orbital plane
View from above orbital plane
View from above satellite
View from above satellite

Ground track
Ground track

The orbit data is extracted from the following two-line orbital elements,

1 33437U 08057B   15090.78629325  .00006734  00000-0  16660-2 0  9998
2 33437 049.5436 216.5097 5009117 209.0276 341.0980 05.57188168128647
Epoch (UTC): 31 March 2015 18:52:15
Eccentricity: 0.5009117
inclination: 49.5436°
perigee height: 329 km
apogee height: 13794 km
right ascension of ascending node: 216.5097°
argument of perigee: 209.0276°
revolutions per day: 5.57188168
mean anomaly at epoch: 341.0980°
orbit number at epoch: 12864

The dashed part of the orbit path shows where the satellite is in the earth's shadow,  

DLR